Location: Gad�tanya
(48.0500°N, 20.8500°E)
Time: 11:50:55
(UTC+00:00)

Cosmos 2278 Rocket - Pass Details

Date: 05 July 2020
Orbit: 841 x 845 km, 71.0° (Epoch: 14 August)

Event Time Altitude Azimuth Distance (km) Brightness Sun altitude
Rises 22:46:33 0° 315° (NW) 3,413 6.0 -19.3°
Reaches altitude 10° 22:50:32 10° 288° (WNW) 2,470 4.8 -19.3°
Maximum altitude 22:52:46 12° 265° (W) 2,294 4.4 -19.2°
Enters shadow 22:54:44 11° 243° (WSW) 2,425 4.3 -19.2°
